2019-087F (44843 NORAD) Tracking and Keplerian Element Data

This shows tracking and keplerian element data for the satellite.

Feedback or suggestion? Click here.




ElementValue
Catalog44843
Name2019-087F
Epoch Orbit1789
Epoch Day94.09767868
Epoch Year2020
RAAN251.3476
Inclination97.3877
Eccentricity0.0012424
Argument of Perigee221.3565
Mean Anonmoly250.3295
Mean Motion15.21489046
Decay Rate9.93E-06
L11 44843U 19087F 20094.09767868 .00000993 00000-0 47178-4 0 9996
L22 44843 97.3877 251.3476 0012424 221.3565 250.3295 15.21489046 17892

Live tracking and technical data element details for 2019-087F (NORAD 44843). 2019-087F can be tracked NOW for your location showing map with azimuth and elevation plus other details from your city location.

Track the satellite on the map from your city or location and see movement details for azimuth, elevation, latitude, longitude, range, height, and movement on the map or in text.







IsCatalogInMostPopularTable: catalog: 44843, numindb: 45
Update: records affected: 1



GetName: 44843 2019-087F

Hit Count: updated at: Sun, 05 Apr 2020 19:34:25 GMT